EHI
0 0 0 0 0 0 0 0 0 0 0 0 0 0 0 0 0 0 0 0 0 0 0 0 0 0 0 0 0 0 0 0 0 0 0 0 0 0 0 0 0 0 0
0 0 0 0 0 0 0 0 0 0 0 0 0 0 0 0 0 0 0 0 0 0 0 0 0 0 0 0 0 0 0 0 0 0 0 0 0 0 0 0 0 0 0
0 0 0 0 0 0 0 0 0 0 0 0 0 0 0 0 0 0 0 0 0 0 0 0 0 0 0 0 0 0 0 0 0 0 0 0 0 0 0 0 0 0 0
0 0 0 0 0 0 0 0 0 0 0 0 0 0 0 0 0 0 0 0 0 0 0 0 0 0 0 0 0 0 0 0 0 0 0 0 0 0 0 0 0 0 0
0 0 0 0 0 0 0 0 0 0 0 0 0 0 0 0 0 0 0 0 0 0 0 0 0 0 0 0 0 0 0 0 0 0 0 0 0 0 0 0 0 0 0
0 0 0 0 0 0 0 0 0 0 0 0 0 0 0 0 0 0 0 0 0 0 0 0 0 0 0 0 0 0 0 0 0 0 0 0 0 0 0 0 0 0 0
0 0 0 0 0 0 0 0 0 0 0 0 0 0 0 0 0 0 0 0 0 0 0 0 0 0 0 0 0 0 0 0 0 0 0 0 0 0 0 0 0 0 0
0 0 0 0 0 0 1 0 0 0 0 0 0 0 0 0 0 0 0 0 0 0 0 0 0 0 0 0 0 0 0 0 0 0 0 0 0 0 0 0 0 0 0
0 0 0 0 0 0 0 0 0 0 0 0 0 0 0 0 0 0 0 0 0 0 0 0 0 0 0 0 0 0 0 0 0 0 0 0 0 0 0 0 0 0 0
0 0 0 0 0 0 0 0 0 0 0 0 0 0 0 0 0 0 0 0 0 0 0 0 0 0 0 0 0 0 0 0 0 0 0 0 0 0 0 0 0 0 0
0 0 0 0 0 0 0 0 0 0 0 0 0 0 0 0 0 0 0 0 0 0 0 0 0 0 0 0 0 0 0 0 0 0 0 0 0 0 0 0 0 0 1
1 0 0 0 0 0 0 0 0 0 0 0 0 0 0 0 0 0 0 0 0 0 0 0 0 0 0 0 0 0 0 0 0 0 0 0 0 0 0 0 0 0 1
2 1 0 0 0 0 0 0 0 0 0 0 0 0 0 0 0 0 0 0 0 0 0 0 0 0 0 0 0 0 0 0 0 0 0 0 0 0 0 0 0 0 1
2 1 0 0 0 0 0 0 0 0 0 0 0 0 0 0 0 0 0 0 0 0 0 0 0 0 0 0 0 0 0 0 0 0 0 0 0 0 0 0 0 0 0
1 0 0 0 0 0 0 0 0 0 0 0 0 0 0 0 0 0 0 0 0 0 0 0 0 0 0 0 0 0 0 0 0 0 0 0 0 0 0 0 0 0 0
0 0 0 0 0 0 0 0 0 0 0 0 0 0 0 0 0 0 0 0 0 0 0 0 0 0 0 0 0 0 0 0 0 0 0 0 0 0 0 0 0 0 0
0 0 0 0 0 0 0 0 0 0 0 0 0 0 0 0 0 0 0 0 0 0 0 0 0 0 0 0 0 0 0 0 0 0 0 0 0 0 0 0 0 0 0
0 0 0 0 0 0 0 0 0 0 0 0 0 0 0 0 0 0 0 0 0 0 0 0 0 0 0 0 0 0 0 0 0 0 0 0 0 0 0 0 0 0 0
0 0 0 0 0 0 0 0 0 0 0 0 0 0 0 0 0 0 0 0 0 0 0 0 0 0 0 0 0 0 0 0 0 0 0 0 0 0 0 0 0 0 0
0 0 0 0 0 0 0 0 0 0 0 0 0 0 0 0 0 0 0 0 0 0 0 0 0 0 0 0 0 0 0 0 0 0 0 0 0 0 0 0 0 0 0
0 0 0 0 0 0 0 0 0 0 0 0 0 0 0 0 0 0 0 0 0 0 0 0 0 0 0 0 0 0 0 0 0 0 0 0 0 0 0 0 0 0 0
0 0 0 0 0 0 0 0 0 0 0 0 0 0 0 0 0 0 0 0 0 0 0 0 0 0 0 0 0 0 0 0 0 0 0 0 0 0 0 0 0 0 0
0 0 0 0 0 0 0 0 0 0 0 0 0 0 0 0 0 0 0 0 0 0 0 0 0 0 0 0 0 0 0 0 0 0 0 0 0 0 0 0 0 0 0
0 0 0 0 0 0 0 0 0 0 0 0 0 0 0 0 0 0 0 0 0 0 0 0 0 0 0 0 0 0 0 0 0 0 0 0 0 0 0 0 0 0 0
0 0 0 0 0 0 0 0 0 0 0 0 0 0 0 0 0 0 0 0 0 0 0 0 0 0 0 0 0 0 0 0 0 0 0 0 0 0 0 0 0 0 0
0 0 0 0 0 0 0 0 0 0 0 0 0 0 0 0 0 0 0 0 0 0 0 0 0 0 0 0 0 0 0 0 0 0 0 0 0 0 0 0 0 0 0
Wind_Speed
3 4 4 4 5 5 6 6 6 8 8 8 8 9 8 7 6 4 5 12 12 11 11 11 11 11 10 10 9 8 7 6 6 5 4 4 3 2 1 0 1 1 2
4 4 4 5 5 5 6 6 7 7 7 6 7 7 7 7 6 5 6 8 12 12 11 12 12 12 12 11 10 9 9 8 7 6 5 5 4 4 3 2 1 1 2
4 4 4 4 5 5 6 5 7 5 5 6 6 7 5 6 5 5 6 6 7 11 12 13 13 13 12 12 11 11 10 9 9 8 7 6 5 5 4 3 2 2 1
4 3 3 4 5 4 4 5 5 4 5 5 4 5 5 5 5 5 5 6 6 7 10 13 13 13 13 13 13 13 11 10 9 9 8 8 7 6 6 5 4 3 2
3 3 3 3 4 3 4 5 4 4 4 5 5 5 4 5 5 5 5 6 7 7 7 11 14 12 12 13 14 14 13 12 11 10 10 9 8 8 7 6 5 5 4
3 2 2 3 3 3 3 4 5 4 4 4 5 5 4 5 5 5 6 6 6 7 8 8 8 10 13 13 15 15 14 13 12 12 11 11 10 9 8 8 7 6 5
3 2 2 2 2 3 4 5 4 5 4 3 2 3 3 5 5 5 5 5 6 7 7 8 7 6 7 14 15 15 16 15 13 13 12 12 11 11 10 9 8 7 5
2 2 2 2 3 3 4 4 4 3 3 4 3 2 2 3 5 6 5 6 7 6 7 8 8 8 7 6 9 15 16 16 15 14 13 13 12 12 11 10 9 8 7
2 2 2 1 2 2 3 4 5 6 5 5 4 4 4 5 3 4 7 6 6 5 6 6 8 8 8 6 6 11 15 15 16 15 14 13 13 12 12 11 10 9 8
3 3 2 2 2 2 3 4 4 4 5 5 4 5 4 2 3 2 3 5 6 6 6 6 7 7 7 6 8 11 14 15 17 17 16 15 14 14 13 12 11 10 9
3 3 3 2 2 2 3 3 3 4 4 5 4 4 5 4 3 3 3 3 4 6 6 7 6 7 8 7 7 11 15 17 18 18 17 16 16 15 14 14 12 11 10
3 3 3 2 2 2 3 3 3 3 4 4 4 4 3 4 4 4 4 4 5 5 6 6 6 7 6 7 9 13 15 17 18 18 18 18 17 15 14 14 13 12 11
3 4 3 3 2 2 2 3 3 3 3 4 4 4 4 4 3 3 4 4 4 3 4 5 6 6 6 6 7 13 14 16 17 19 20 19 16 14 13 13 13 12 12
3 4 4 3 3 3 3 3 3 3 3 4 4 4 4 4 4 4 4 3 4 4 5 6 4 6 6 6 8 13 11 16 17 18 19 17 14 12 12 13 13 12 11
4 5 4 4 4 4 4 3 3 4 4 3 4 4 4 4 4 4 4 5 6 6 7 6 4 5 5 5 7 8 9 14 17 17 16 14 13 12 13 13 12 11 11
6 6 5 5 5 5 5 4 3 3 4 4 3 4 4 3 4 4 4 5 5 6 7 5 5 4 5 5 7 7 8 13 15 16 16 14 14 14 13 13 13 12 11
6 6 6 6 6 5 5 5 4 4 4 4 4 4 5 4 4 3 4 4 5 5 8 5 3 3 5 6 5 6 6 8 9 15 16 15 15 15 15 14 14 14 13
6 6 6 5 5 6 5 5 6 5 5 5 5 5 5 5 5 4 4 5 6 5 6 8 4 3 5 7 7 7 6 6 7 13 16 16 16 16 16 16 16 15 14
5 5 5 6 6 6 6 6 6 6 6 6 6 6 6 5 6 4 5 5 5 5 5 6 6 3 3 4 6 5 5 5 6 9 14 16 17 17 17 17 17 16 15
5 5 5 5 5 6 6 6 6 6 6 6 6 6 5 5 6 6 5 6 5 6 6 6 5 4 3 4 5 5 5 5 5 5 10 11 14 17 17 18 18 16 16
6 5 5 6 6 5 6 7 7 7 7 7 7 6 6 7 8 7 6 6 6 6 6 6 6 5 4 3 5 4 6 4 5 5 6 7 8 9 11 15 16 17 17
5 5 5 5 6 6 12 14 11 7 7 7 8 7 7 7 9 11 12 11 10 8 8 7 7 7 7 5 5 5 5 4 5 5 6 7 6 8 8 8 14 17 18
5 5 5 5 5 7 13 14 14 8 7 7 7 7 7 8 10 7 10 12 11 13 13 10 10 9 8 7 7 7 7 6 6 5 6 7 6 8 7 9 16 18 18
5 5 5 6 6 8 14 14 15 8 6 6 7 7 8 8 8 9 8 8 8 8 10 8 9 9 9 8 9 9 9 7 4 4 6 6 5 5 5 6 15 18 18
4 4 5 5 6 8 13 14 14 6 6 7 7 7 8 8 14 16 10 9 9 9 11 13 14 13 14 14 11 6 6 6 5 4 4 4 3 2 2 4 9 16 17
5 5 5 5 5 6 11 14 14 5 6 7 7 7 11 13 16 17 10 9 10 9 9 10 10 11 10 10 12 9 8 7 5 4 5 5 4 3 2 2 4 7 9
Wind_Direction
204 203 194 191 193 191 191 192 197 203 206 209 203 202 204 209 210 184 163 178 181 192 202 208 210 210 211 212 212 210 208 208 205 204 202 200 198 200 204 153 43 19 9
205 203 203 199 199 198 195 197 200 206 207 206 208 208 203 202 207 186 165 182 188 192 201 210 213 214 214 215 215 214 211 212 213 211 210 210 206 208 205 207 233 309 341
218 208 205 204 204 202 200 202 207 210 210 207 209 210 205 205 203 192 174 174 188 199 202 210 215 216 217 219 219 216 215 214 214 215 213 212 212 208 208 215 223 251 285
239 219 212 209 205 201 201 204 209 206 210 209 208 212 208 202 207 202 191 179 180 190 204 210 214 217 218 222 224 221 217 214 212 214 215 216 212 208 213 217 224 236 245
246 226 214 220 209 201 204 208 210 204 210 214 214 214 209 199 205 210 207 197 189 185 188 204 209 213 217 222 226 224 221 218 215 215 216 216 213 214 219 220 223 230 235
263 238 216 225 218 211 207 204 210 209 213 211 217 222 219 209 204 208 211 207 200 194 190 191 198 213 217 219 225 226 225 223 218 217 218 218 217 218 222 223 222 224 224
292 266 249 233 218 218 219 211 207 210 216 202 198 225 240 225 217 213 210 205 206 202 197 193 190 194 208 217 221 224 222 224 223 222 221 219 218 220 221 223 223 220 213
315 295 266 249 236 223 227 224 214 210 213 191 181 183 226 239 236 223 213 211 211 204 204 202 194 195 194 195 212 217 220 222 224 225 222 220 221 223 223 219 218 219 213
318 312 295 273 258 233 226 224 219 214 216 208 191 180 194 213 218 224 219 216 211 208 209 208 205 202 198 193 197 209 213 217 222 225 223 220 222 224 223 219 219 217 214
337 348 341 328 304 269 247 243 234 230 216 213 212 211 211 182 194 228 228 219 215 217 216 213 211 208 201 198 200 201 205 211 220 225 226 224 224 225 224 220 219 216 212
338 348 343 341 333 309 290 265 249 242 232 224 214 210 223 226 211 217 231 221 226 225 221 215 213 213 208 204 202 203 201 207 216 222 225 226 226 227 225 222 221 217 217
332 340 339 336 329 316 308 296 265 251 249 243 231 217 206 206 210 214 228 223 228 231 223 217 215 214 209 206 208 204 202 207 215 219 223 225 226 225 221 219 219 218 219
333 331 332 331 326 312 306 301 290 283 265 260 245 239 234 231 218 217 225 233 237 239 227 227 219 214 212 208 211 206 206 208 213 219 223 224 223 220 214 216 221 220 220
334 335 335 327 317 313 306 290 280 277 272 266 265 259 248 243 236 229 224 226 244 240 230 233 225 216 213 209 213 204 210 209 211 218 224 225 219 212 207 213 220 220 218
344 348 345 340 334 325 311 298 280 282 280 267 264 263 261 252 243 237 233 224 228 241 240 225 223 219 217 214 210 211 210 210 210 214 220 219 210 204 204 209 214 214 210
351 349 353 351 346 339 329 316 306 295 289 281 273 272 269 267 261 251 248 245 237 239 248 227 228 227 218 223 214 215 221 214 212 214 215 211 204 201 203 206 208 205 202
354 354 352 353 351 347 346 340 325 317 300 294 291 280 274 274 269 267 260 252 249 247 255 254 230 230 220 222 219 219 222 218 215 214 213 209 205 202 203 203 204 202 201
354 353 351 353 349 348 349 343 335 331 323 311 302 294 287 285 273 268 265 260 254 249 254 262 254 236 233 223 218 219 221 219 219 214 211 210 208 206 205 203 203 202 201
351 352 354 352 349 348 348 344 337 332 324 317 312 302 293 289 283 278 273 269 270 267 256 261 262 248 246 226 222 225 222 221 219 215 211 211 210 209 208 205 204 202 200
349 349 349 349 347 344 347 344 338 332 324 319 313 304 300 294 286 284 279 272 275 273 265 259 262 257 247 233 219 219 229 221 219 213 218 216 214 210 209 209 206 202 199
349 347 349 350 348 345 348 345 339 335 329 322 318 316 308 304 301 296 287 278 275 273 272 263 260 258 248 229 226 221 231 228 228 211 214 213 209 208 207 211 207 202 200
344 344 345 345 345 343 341 345 344 333 328 323 320 320 316 311 308 305 301 295 284 273 271 267 259 252 248 243 235 231 228 225 234 205 207 219 206 211 207 206 205 202 201
339 338 337 338 334 332 338 340 341 335 328 325 323 321 318 319 319 309 303 298 290 285 278 272 267 259 251 242 235 233 232 233 237 206 202 223 209 217 207 208 204 202 203
331 328 327 326 325 331 337 337 336 333 320 317 315 314 314 315 318 318 310 302 291 286 282 273 265 264 259 247 232 232 233 242 260 217 196 219 205 215 204 200 201 201 203
322 319 318 322 321 323 333 336 337 328 322 316 312 314 315 313 317 319 313 304 298 294 294 288 282 278 277 270 258 245 230 230 249 229 199 199 191 195 197 201 199 198 201
312 313 315 314 312 313 328 335 336 325 319 315 312 310 314 315 315 316 309 299 294 293 295 295 288 281 269 260 256 237 226 228 239 232 195 183 174 158 187 207 190 187 194